Location: Unnamed Road
(35.9029°N, 51.9749°E)
Time: 01:40:04
(UTC+04:30)

Vanguard 2 - All Passes

Search period start: 26 May 2020 00:00
Search period end: 05 June 2020 00:00
Orbit: 553 x 2938 km, 32.9° (Epoch: 25 May)

Date Brightness Start Highest point End Pass type
(mag) Time Alt. Az. Time Alt. Az. Time Alt. Az.
26 May - 01:16:43 10° W 01:21:25 49° SSW 01:25:14 10° ESE night (unlit)
26 May - 03:26:43 10° WSW 03:29:02 15° SSW 03:31:26 10° S night (unlit)
26 May - 19:04:00 10° SSW 19:12:52 23° SSE 19:19:12 10° ESE daylight
26 May - 21:13:15 10° SW 21:22:29 46° SSE 21:28:10 10° E visible
26 May - 23:24:22 10° W 23:31:11 65° S 23:35:39 10° E visible
27 May - 01:34:44 10° W 01:39:10 38° SSW 01:42:51 10° SE night (unlit)
27 May - 17:16:45 10° SSE 17:20:26 11° SSE 17:23:45 10° SE daylight
27 May - 19:20:32 10° SSW 19:30:52 31° SSE 19:37:46 10° E daylight
27 May - 21:30:59 10° WSW 21:40:23 55° SSE 21:46:04 10° E visible
27 May - 23:42:24 10° W 23:49:02 64° S 23:53:27 10° ESE visible
28 May - 01:52:52 10° W 01:56:51 28° SSW 02:00:16 10° SE night (unlit)
28 May - 17:30:13 10° S 17:38:29 18° SSE 17:45:05 10° ESE daylight
28 May - 19:37:34 10° SW 19:48:51 39° SSE 19:55:59 10° E daylight
28 May - 21:48:54 10° WSW 21:58:16 63° S 22:03:54 10° E visible
29 May - 00:00:27 10° W 00:06:51 59° S 00:11:10 10° ESE visible
29 May - 02:11:12 10° WSW 02:14:28 19° SSW 02:17:23 10° SSE night (unlit)
29 May - 17:45:44 10° SSW 17:56:30 24° SSE 18:04:26 10° ESE daylight
29 May - 19:54:57 10° SW 20:06:48 48° SSE 20:14:01 10° E daylight
29 May - 22:06:55 10° WSW 22:16:11 68° S 22:21:42 10° E visible
30 May - 00:18:31 10° W 00:24:37 50° SSW 00:28:50 10° ESE visible
30 May - 02:30:10 10° WSW 02:32:01 12° SSW 02:33:47 10° S night (unlit)
30 May - 15:59:41 10° SSE 16:03:35 11° SE 16:07:14 10° SE daylight
30 May - 18:02:05 10° SSW 18:14:29 32° SSE 18:23:06 10° E daylight
30 May - 20:12:38 10° WSW 20:24:45 57° SSE 20:31:56 10° E daylight
30 May - 22:25:01 10° W 22:34:04 70° S 22:39:30 10° E visible
31 May - 00:36:38 10° W 00:42:19 39° SSW 00:46:22 10° SE visible
31 May - 16:12:25 10° S 16:21:35 17° SE 16:29:16 10° ESE daylight
31 May - 18:18:57 10° SW 18:32:28 40° SSE 18:41:24 10° E daylight
31 May - 20:30:31 10° WSW 20:42:41 65° S 20:49:48 10° E visible
31 May - 22:43:08 10° W 22:51:57 68° S 22:57:15 10° ESE visible
01 Jun - 00:54:52 10° W 00:59:56 29° SSW 01:03:42 10° SSE visible
01 Jun - 16:27:36 10° SSW 16:39:32 24° SSE 16:48:56 10° E daylight
01 Jun - 18:36:12 10° SW 18:50:26 49° SSE 18:59:31 10° E daylight
01 Jun - 20:48:33 10° WSW 21:00:38 71° S 21:07:39 10° E visible
01 Jun - 23:01:17 10° W 23:09:46 61° SSW 23:14:58 10° ESE visible
02 Jun - 01:13:20 10° W 01:17:25 20° SW 01:20:42 10° SSE visible
02 Jun - 16:43:42 10° SSW 16:57:28 32° SSE 17:07:49 10° E daylight
02 Jun - 18:53:46 10° SW 19:08:24 57° SSE 19:17:30 10° E daylight
02 Jun - 21:06:41 10° W 21:18:35 74° S 21:25:27 10° E visible
02 Jun - 23:19:26 10° W 23:27:32 52° SSW 23:32:35 10° SE visible
03 Jun - 01:32:27 10° WSW 01:34:51 13° SW 01:36:57 10° SSW visible
03 Jun - 14:55:25 10° S 15:04:16 16° SE 15:12:14 10° ESE daylight
03 Jun - 17:00:22 10° SSW 17:15:23 40° SSE 17:26:15 10° E daylight
03 Jun - 19:11:34 10° WSW 19:26:24 65° SSE 19:35:24 10° E daylight
03 Jun - 21:24:52 10° W 21:36:31 74° S 21:43:15 10° E visible
03 Jun - 23:37:38 10° W 23:45:11 41° SSW 23:50:04 10° SE visible
04 Jun - 15:10:05 10° S 15:22:05 23° SE 15:32:29 10° E daylight
04 Jun - 17:17:27 10° SW 17:33:20 48° SSE 17:44:28 10° E daylight
04 Jun - 19:29:34 10° WSW 19:44:22 71° S 19:53:16 10° E daylight
04 Jun - 21:43:05 10° W 21:54:25 70° S 22:01:00 10° ESE visible
